When you browse on this site, cookies collect data to enhance your experience and personalize the content and advertising you see.
Visit our Privacy Policy to learn more. By continuing to use the site, you agree to this use of cookies and data.
  • In Sweden
  • List of Countries
  • For 7 days
  • Water Temperature
  • Satellite Maps
  • Weather Map
  • Weather Widgets
  • user-avatar
    Login

    Hourly Weather Accrington

    Today, 26 June, Wednesday

    Time Temperature Precipitation Wind Pressure Humidity
    00:00 +13°C° 0 mm 2 mps 755 mmHg 91%
    01:00 +12°C° 0 mm 3 mps 755 mmHg 91%
    02:00 +12°C° 0 mm 3 mps 755 mmHg 90%
    03:00 +12°C° 0 mm 3 mps 755 mmHg 90%
    04:00 +12°C° 0 mm 3 mps 755 mmHg 89%
    05:00 +12°C° 0 mm 3 mps 756 mmHg 88%
    06:00 +12°C° 0 mm 4 mps 756 mmHg 87%
    07:00 +13°C° 0 mm 4 mps 757 mmHg 85%
    08:00 +13°C° 0 mm 4 mps 757 mmHg 84%
    09:00 +14°C° 0 mm 3 mps 757 mmHg 82%
    10:00 +16°C° 0 mm 3 mps 758 mmHg 79%
    11:00 +17°C° 0 mm 3 mps 758 mmHg 77%
    12:00 +18°C° 0 mm 3 mps 759 mmHg 75%
    13:00 +18°C° 0 mm 3 mps 758 mmHg 74%
    14:00 +18°C° 0 mm 3 mps 758 mmHg 74%
    15:00 +19°C° 0 mm 3 mps 758 mmHg 73%
    16:00 +18°C° 0 mm 3 mps 758 mmHg 74%
    17:00 +18°C° 0 mm 4 mps 758 mmHg 76%
    18:00 +18°C° 0 mm 4 mps 758 mmHg 77%
    19:00 +16°C° 0 mm 3 mps 758 mmHg 78%
    20:00 +14°C° 0 mm 3 mps 758 mmHg 80%
    21:00 +12°C° 0 mm 3 mps 759 mmHg 81%
    22:00 +11°C° 0 mm 3 mps 759 mmHg 80%
    23:00 +10°C° 0 mm 2 mps 759 mmHg 78%

    Tomorrow, 27 June, Thursday

    Time Temperature Precipitation Wind Pressure Humidity
    00:00 +10°C° 0 mm 2 mps 759 mmHg 77%
    01:00 +9°C° 0 mm 2 mps 759 mmHg 75%
    02:00 +9°C° 0 mm 2 mps 759 mmHg 73%
    03:00 +10°C° 0 mm 1 mps 759 mmHg 70%
    04:00 +10°C° 0 mm 2 mps 759 mmHg 70%
    05:00 +12°C° 0 mm 2 mps 758 mmHg 70%
    06:00 +13°C° 0 mm 2 mps 758 mmHg 69%
    07:00 +14°C° 0 mm 3 mps 759 mmHg 68%
    08:00 +16°C° 0 mm 3 mps 759 mmHg 66%
    09:00 +18°C° 0 mm 4 mps 759 mmHg 64%
    10:00 +19°C° 0 mm 4 mps 759 mmHg 64%
    11:00 +20°C° 0 mm 4 mps 759 mmHg 63%
    12:00 +21°C° 0 mm 4 mps 759 mmHg 62%
    13:00 +22°C° 0 mm 5 mps 759 mmHg 63%
    14:00 +22°C° 0 mm 5 mps 759 mmHg 63%
    15:00 +23°C° 0 mm 5 mps 758 mmHg 63%
    16:00 +22°C° 0 mm 5 mps 758 mmHg 66%
    17:00 +21°C° 0 mm 5 mps 758 mmHg 69%
    18:00 +20°C° 0 mm 5 mps 757 mmHg 71%
    19:00 +17°C° 0 mm 5 mps 757 mmHg 74%
    20:00 +16°C° 0 mm 5 mps 757 mmHg 76%
    21:00 +14°C° 0 mm 4 mps 758 mmHg 78%
    22:00 +13°C° 0 mm 4 mps 757 mmHg 79%
    23:00 +13°C° 0 mm 4 mps 757 mmHg 79%

    Day after tomorrow, 28 June, Friday

    Time Temperature Precipitation Wind Pressure Humidity
    00:00 +12°C° 0 mm 4 mps 757 mmHg 80%
    01:00 +11°C° 0 mm 4 mps 757 mmHg 82%
    02:00 +11°C° 0 mm 3 mps 757 mmHg 84%
    03:00 +10°C° 0 mm 3 mps 756 mmHg 87%
    04:00 +11°C° 0 mm 3 mps 756 mmHg 85%
    05:00 +11°C° 0 mm 4 mps 756 mmHg 84%
    06:00 +12°C° 0 mm 4 mps 756 mmHg 83%
    07:00 +13°C° 0 mm 4 mps 755 mmHg 79%
    08:00 +15°C° 0 mm 5 mps 755 mmHg 76%
    09:00 +16°C° 0 mm 5 mps 755 mmHg 72%
    10:00 +19°C° 0 mm 5 mps 755 mmHg 70%
    11:00 +20°C° 0 mm 6 mps 754 mmHg 68%
    12:00 +21°C° 0 mm 6 mps 754 mmHg 66%
    13:00 +22°C° 0 mm 6 mps 754 mmHg 65%
    14:00 +22°C° 0 mm 6 mps 753 mmHg 64%
    15:00 +22°C° 0 mm 6 mps 753 mmHg 64%
    16:00 +22°C° 0 mm 6 mps 752 mmHg 66%
    17:00 +21°C° 0 mm 6 mps 752 mmHg 68%
    18:00 +20°C° 0 mm 6 mps 751 mmHg 70%
    19:00 +19°C° 0 mm 5 mps 751 mmHg 72%
    20:00 +16°C° 0 mm 5 mps 751 mmHg 75%
    21:00 +15°C° 0 mm 4 mps 751 mmHg 77%
    22:00 +14°C° 0 mm 4 mps 751 mmHg 79%
    23:00 +13°C° 0 mm 3 mps 751 mmHg 81%

    29 June, Saturday

    Time Temperature Precipitation Wind Pressure Humidity
    00:00 +13°C° 0 mm 2 mps 750 mmHg 83%
    01:00 +13°C° 0 mm 2 mps 750 mmHg 83%
    02:00 +13°C° 0 mm 2 mps 749 mmHg 83%
    03:00 +12°C° 0 mm 2 mps 749 mmHg 82%
    04:00 +13°C° 0 mm 2 mps 748 mmHg 82%
    05:00 +14°C° 0 mm 2 mps 748 mmHg 81%
    06:00 +15°C° 0 mm 2 mps 748 mmHg 81%
    07:00 +17°C° 0 mm 2 mps 747 mmHg 77%
    08:00 +19°C° 0 mm 3 mps 747 mmHg 73%
    09:00 +20°C° 0 mm 3 mps 747 mmHg 70%
    10:00 +21°C° 0 mm 3 mps 746 mmHg 71%
    11:00 +22°C° 0 mm 3 mps 746 mmHg 72%
    12:00 +24°C° 0 mm 3 mps 745 mmHg 73%
    13:00 +22°C° 0 mm 3 mps 745 mmHg 78%
    14:00 +21°C° 0 mm 3 mps 745 mmHg 83%
    15:00 +20°C° 0 mm 2 mps 744 mmHg 88%
    16:00 +20°C° 0 mm 2 mps 744 mmHg 88%
    17:00 +20°C° 0 mm 2 mps 743 mmHg 88%
    18:00 +20°C° 0 mm 2 mps 743 mmHg 87%
    19:00 +19°C° 0 mm 2 mps 743 mmHg 88%
    20:00 +17°C° 0 mm 2 mps 743 mmHg 88%
    21:00 +16°C° 0 mm 3 mps 743 mmHg 89%
    22:00 +14°C° 0 mm 3 mps 743 mmHg 89%
    23:00 +13°C° 0 mm 3 mps 743 mmHg 89%

    30 June, Sunday

    Time Temperature Precipitation Wind Pressure Humidity
    00:00 +13°C° 0 mm 4 mps 743 mmHg 89%
    01:00 +13°C° 0 mm 4 mps 743 mmHg 90%
    02:00 +13°C° 0 mm 4 mps 743 mmHg 91%
    03:00 +13°C° 0 mm 4 mps 743 mmHg 91%
    04:00 +13°C° 0 mm 5 mps 744 mmHg 91%
    05:00 +14°C° 0 mm 5 mps 744 mmHg 91%
    06:00 +14°C° 0 mm 5 mps 744 mmHg 91%
    07:00 +14°C° 0.1 mm 5 mps 744 mmHg 90%
    08:00 +14°C° 0.1 mm 5 mps 745 mmHg 89%
    09:00 +14°C° 0.1 mm 6 mps 745 mmHg 88%
    10:00 +14°C° 0 mm 6 mps 745 mmHg 84%
    11:00 +15°C° 0 mm 6 mps 745 mmHg 81%
    12:00 +16°C° 0 mm 6 mps 745 mmHg 78%
    13:00 +16°C° 0.1 mm 6 mps 745 mmHg 76%
    14:00 +17°C° 0.1 mm 7 mps 745 mmHg 74%
    15:00 +17°C° 0.1 mm 7 mps 745 mmHg 73%
    16:00 +17°C° 0.1 mm 7 mps 745 mmHg 74%
    17:00 +16°C° 0.1 mm 7 mps 746 mmHg 76%
    18:00 +16°C° 0.1 mm 7 mps 746 mmHg 78%
    19:00 +15°C° 0 mm 6 mps 746 mmHg 79%
    20:00 +14°C° 0 mm 5 mps 746 mmHg 81%
    21:00 +13°C° 0 mm 4 mps 747 mmHg 83%
    22:00 +12°C° 0 mm 4 mps 747 mmHg 82%
    23:00 +12°C° 0 mm 5 mps 747 mmHg 82%

    1 July, Monday

    Time Temperature Precipitation Wind Pressure Humidity
    00:00 +10°C° 0 mm 5 mps 747 mmHg 81%
    01:00 +10°C° 0 mm 5 mps 747 mmHg 78%
    02:00 +11°C° 0 mm 6 mps 747 mmHg 75%
    03:00 +11°C° 0 mm 6 mps 747 mmHg 72%
    04:00 +10°C° 0.1 mm 6 mps 747 mmHg 75%
    05:00 +10°C° 0.1 mm 7 mps 747 mmHg 79%
    06:00 +10°C° 0.1 mm 8 mps 748 mmHg 82%
    07:00 +11°C° 0.1 mm 8 mps 748 mmHg 80%
    08:00 +11°C° 0.1 mm 8 mps 748 mmHg 78%
    09:00 +12°C° 0.1 mm 9 mps 748 mmHg 76%
    10:00 +12°C° 0.1 mm 9 mps 748 mmHg 77%
    11:00 +12°C° 0.1 mm 9 mps 748 mmHg 78%
    12:00 +12°C° 0.1 mm 9 mps 748 mmHg 80%
    13:00 +12°C° 0.2 mm 9 mps 749 mmHg 76%
    14:00 +13°C° 0.2 mm 9 mps 749 mmHg 73%
    15:00 +15°C° 0.2 mm 9 mps 749 mmHg 69%
    16:00 +13°C° 0 mm 9 mps 750 mmHg 70%
    17:00 +13°C° 0 mm 8 mps 750 mmHg 70%
    18:00 +14°C° 0 mm 7 mps 750 mmHg 71%
    19:00 +11°C° 0 mm 6 mps 751 mmHg 74%
    20:00 +10°C° 0 mm 5 mps 752 mmHg 78%
    21:00 +10°C° 0 mm 4 mps 752 mmHg 82%
    22:00 +10°C° 0 mm 4 mps 752 mmHg 84%
    23:00 +9°C° 0 mm 3 mps 753 mmHg 86%
    Show more